Weather History for Springfield, VT

Change the Weather History Date:

Saturday, April 27, 2013

  Actual Average Record
Temperature  
Mean Temperature 48 °F 49 °F  
Max Temperature 65 °F 62 °F 81 °F (2011)
Min Temperature 31 °F 37 °F 27 °F (1997)
Degree Days  
Heating Degree Days 17 16  
Month to date heating degree days 608 579  
Since 1 July heating degree days 6490 7059  
Cooling Degree Days 0 0  
Month to date cooling degree days 0 0  
Year to date cooling degree days 0 0  
Moisture  
Dew Point 28 °F    
Average Humidity 55    
Maximum Humidity 96    
Minimum Humidity 14    
Precipitation  
Precipitation 0.00 in 0.10 in 0.79 in (2005)
Month to date precipitation 1.82 3.30  
Year to date precipitation 6.97 12.21  
Sea Level Pressure  
Sea Level Pressure 30.38 in    
Wind  
Wind Speed 2 mph (NW)    
Max Wind Speed 12 mph    
Max Gust Speed 15 mph    
Visibility 10 miles    
Events      
T = Trace of Precipitation, MM = Missing Value Source: NWS Daily Summary

Daily Weather History Graph

Daily Weather History Graph

Search for Another Location

Airport:

Trip Planner

Search our weather history database for the weather conditions in past years. The results will help you decide how hot, cold, wet, or windy it might be!

Date:

Astronomy

Apr. 27, 2013 Rise Set
Actual Time 5:48 AM EDT 7:47 PM EDT
Civil Twilight 5:17 AM EDT 8:18 PM EDT
Nautical Twilight 4:40 AM EDT 8:56 PM EDT
Astronomical Twilight 3:58 AM EDT 9:37 PM EDT
Moon 10:16 PM EDT (4/27) 7:01 AM EDT (4/27)
Length of Visible Light 15h 00m
Length of Day
13h 58m
Waning Gibbous, 95% of the Moon is Illuminated
Apr 27
Waning Gibbous
May 2
Last Quarter
May 9
New
May 18
First Quarter
May 25
Full

Hourly Weather History & Observations

Time (EDT) Temp. Dew Point Humidity Pressure Visibility Wind Dir Wind Speed Gust Speed Precip Events Conditions
12:54 AM 37.9 °F 33.1 °F 83% 30.44 in 10.0 mi Calm Calm - N/A   Partly Cloudy
1:54 AM 37.0 °F 34.0 °F 89% 30.45 in 10.0 mi Calm Calm - N/A   Mostly Cloudy
2:54 AM 35.1 °F 32.0 °F 89% 30.44 in 10.0 mi Calm Calm - N/A   Mostly Cloudy
3:54 AM 34.0 °F 32.0 °F 92% 30.43 in 10.0 mi Calm Calm - N/A   Clear
4:54 AM 32.0 °F 30.0 °F 92% 30.44 in 10.0 mi Calm Calm - N/A   Clear
5:54 AM 32.0 °F 30.0 °F 92% 30.45 in 10.0 mi Calm Calm - N/A   Clear
6:54 AM 33.1 °F 32.0 °F 96% 30.45 in 8.0 mi Calm Calm - N/A   Clear
7:54 AM 39.0 °F 34.0 °F 82% 30.45 in 10.0 mi Calm Calm - N/A   Clear
8:54 AM 46.0 °F 36.0 °F 68% 30.45 in 10.0 mi Calm Calm - N/A   Clear
9:54 AM 53.1 °F 34.0 °F 48% 30.43 in 10.0 mi Calm Calm - N/A   Clear
10:54 AM 55.0 °F 33.1 °F 43% 30.42 in 10.0 mi Variable 3.5 mph - N/A   Clear
11:54 AM 57.9 °F 28.0 °F 32% 30.40 in 10.0 mi East 4.6 mph - N/A   Clear
12:54 PM 59.0 °F 28.0 °F 31% 30.38 in 10.0 mi Variable 3.5 mph - N/A   Clear
1:54 PM 61.0 °F 21.9 °F 22% 30.35 in 10.0 mi Calm Calm - N/A   Clear
2:54 PM 63.0 °F 12.9 °F 14% 30.32 in 10.0 mi Calm Calm - N/A   Mostly Cloudy
3:54 PM 63.0 °F 16.0 °F 16% 30.30 in 10.0 mi Variable 3.5 mph - N/A   Overcast
4:54 PM 63.0 °F 21.0 °F 20% 30.29 in 10.0 mi WNW 8.1 mph - N/A   Overcast
5:54 PM 61.0 °F 21.9 °F 22% 30.30 in 10.0 mi WNW 8.1 mph - N/A   Overcast
6:54 PM 60.1 °F 21.9 °F 23% 30.30 in 10.0 mi WNW 6.9 mph - N/A   Overcast
7:54 PM 57.0 °F 24.1 °F 28% 30.30 in 10.0 mi Calm Calm - N/A   Mostly Cloudy
8:54 PM 53.1 °F 28.0 °F 38% 30.30 in 10.0 mi NNW 4.6 mph - N/A   Partly Cloudy
9:54 PM 48.0 °F 30.0 °F 50% 30.32 in 10.0 mi Calm Calm - N/A   Clear
10:54 PM 42.1 °F 32.0 °F 67% 30.32 in 10.0 mi Calm Calm - N/A   Clear
11:54 PM 39.9 °F 30.9 °F 70% 30.33 in 10.0 mi Calm Calm - N/A   Clear